[[{"header":{"parameterUnit":"m.s-1","parameterCategory":2,"la1":30.2991,"la2":30.254,"lo1":-89.0895,"lo2":-89.0444,"dy":0.0017,"dx":0.0017,"nx":28,"ny":28,"refTime":"2025-07-13T03:00:00:Z","depth":"0","parameterNumber":2,"parameterNumberName":"U-component_of_CURRENTS"},"data":[0,0,0,0,0,0,0,0,0,0,0,0,0,0,0,0,0,0,0,0,0,0,0,0,0,0,0,0,0,0,0,0,0,0,0,0,0,0,0,0,0,0,0,0,0,0,0,0,0,0,0,0,0,0,0,0,0,0,0.284,0.284,0,0.2844,0.2844,0.2844,0.2814,0.2813,0.2812,0.2811,0.283,0.2831,0.2833,0,0,0,0,0,0,0,0,0,0,0,0,0,0.2926,0.2924,0.284,0.284,0.284,0.2844,0.2844,0.2844,0.2814,0.2813,0.2812,0.2811,0.283,0.2831,0.2833,0,0,0,0,0,0,0,0,0,0,0,0,0,0.2906,0.2924,0.284,0.2825,0.2823,0.2844,0.2844,0.2844,0.2814,0.2813,0.2811,0.281,0.2829,0.2831,0.2833,0.2874,0,0,0.2839,0.284,0,0,0,0,0,0,0,0,0.2907,0.2903,0.2827,0.2826,0.2824,0.2826,0.2881,0.2854,0.2814,0.2818,0.2811,0.2809,0.2831,0.2833,0.2837,0.2874,0.2875,0.284,0.2841,0.2842,0.2842,0,0,0,0,0,0,0,0.2908,0.2903,0.2842,0.2827,0.2825,0.2859,0.2853,0.2877,0.2833,0.2818,0.2816,0.2815,0.283,0.2835,0.2838,0.2876,0.284,0.2841,0.2843,0.2843,0.3023,0.3026,0,0,0,0,0,0,0.2901,0.2904,0.2842,0.2842,0.2862,0.2858,0.2852,0.2828,0.2833,0.2832,0.2816,0.2814,0.2833,0.2835,0.2838,0.3031,0.2842,0.2844,0.2845,0.3019,0.3023,0.3027,0,0,0,0,0,0,0.2902,0.2895,0.2842,0.2874,0.287,0.2857,0.2831,0.2828,0.2838,0.2831,0.283,0.2828,0.2832,0.2835,0.2907,0.3026,0.2845,0.2846,0.3015,0.302,0.3025,0.3324,0,0,0,0,0,0,0.2904,0.2894,0.2889,0.2873,0.2867,0.2902,0.2832,0.2829,0.2839,0.2836,0.2841,0.2841,0.2831,0.2905,0.2909,0.3025,0.2848,0.301,0.3017,0.3024,0.331,0.3339,0.3364,0,0,0,0,0,0.2907,0.2908,0.2888,0.2881,0.2854,0.2906,0.2909,0.2895,0.2841,0.2888,0.2888,0.2841,0.2948,0.291,0.2914,0.3034,0.3007,0.3015,0.3023,0.3298,0.3333,0.3363,0,0,0,0,0,0,0.2942,0.2904,0.2882,0.2869,0.2906,0.2901,0.293,0.2905,0.2937,0.2921,0.2896,0.2901,0.3018,0.2964,0.2921,0.3096,0.2966,0.2975,0.3173,0.3206,0.3233,0.3251,0.285,0,0,0,0,0,0.2945,0.2937,0.2931,0.2932,0.2947,0.2936,0.295,0.2943,0.2959,0.2968,0.2973,0.2981,0.3054,0.3076,0.3116,0.3204,0.3195,0.3274,0.3301,0.3325,0.3339,0.3489,0.3534,0.3053,0.3053,0.3053,0,0,0.2956,0.2939,0.2931,0.2941,0.2954,0.3039,0.2944,0.2981,0.3066,0.2968,0.3079,0.3087,0.3099,0.323,0.3272,0.3198,0.3449,0.3335,0.3356,0.3357,0.3503,0.355,0.3592,0.3059,0.3058,0.3057,0,0,0.3018,0.2966,0.3005,0.3053,0.3087,0.3103,0.312,0.3135,0.3158,0.3258,0.3232,0.3316,0.3368,0.3441,0.3476,0.3662,0.36,0.3645,0.3798,0.3947,0.3989,0.4026,0.4053,0.409,0.3646,0.3647,0.3647,0,0.3047,0.3084,0.3038,0.3124,0.3179,0.3146,0.325,0.3294,0.3338,0.3367,0.3329,0.3469,0.3495,0.3679,0.376,0.3739,0.3749,0.3689,0.3991,0.4027,0.406,0.4078,0.4116,0.3662,0.366,0.3659,0.3657,0,0.3157,0.3215,0.3255,0.335,0.3409,0.3492,0.3544,0.3595,0.3597,0.3628,0.3771,0.3819,0.3887,0.3934,0.392,0.4158,0.4065,0.4029,0.3924,0.4128,0.4131,0.4165,0.3684,0.3679,0.3674,0.367,0,0,0.3166,0.3306,0.3328,0.3413,0.3531,0.3585,0.3731,0.3844,0.3902,0.3983,0.4096,0.4268,0.4229,0.4264,0.4262,0.4396,0.4661,0.4317,0.4318,0.4369,0.4911,0.461,0.4615,0.4689,0.4697,0.4703,0.4813,0,0.329,0.3483,0.3517,0.3726,0.3838,0.3863,0.3994,0.4078,0.4126,0.4225,0.43,0.4413,0.4376,0.4414,0.4565,0.4619,0.4765,0.4628,0.468,0.4679,0.4414,0.4652,0.4299,0.4347,0.4844,0.485,0.4854,0,0.3401,0.3521,0.373,0.3901,0.3941,0.4045,0.4178,0.4288,0.441,0.4437,0.4546,0.4574,0.4776,0.4719,0.4962,0.4866,0.4934,0.4976,0.4981,0.4618,0.4443,0.4225,0.4388,0.4257,0.4904,0.49,0.4896,0,0.3446,0.3666,0.3827,0.39,0.4087,0.4146,0.4225,0.4336,0.4403,0.456,0.4613,0.4804,0.488,0.5049,0.5098,0.507,0.5319,0.5283,0.508,0.5054,0.4717,0.4646,0.4778,0.5532,0.5532,0.5531,0.5531,0,0.3578,0.3708,0.3844,0.3946,0.4093,0.4181,0.4303,0.4384,0.4495,0.4591,0.4708,0.4806,0.4982,0.5101,0.5179,0.5182,0.5389,0.5149,0.5105,0.4797,0.4736,0.4564,0.4553,0.5535,0.5534,0.5534,0.5533,0,0.3644,0.3738,0.3921,0.4091,0.4125,0.4219,0.4326,0.4407,0.4495,0.4627,0.469,0.4846,0.4964,0.5068,0.5284,0.5217,0.5115,0.5261,0.4806,0.4705,0.4314,0.433,0.4234,0.4149,0.5061,0.5055,0.505,0,0.3716,0.3822,0.3992,0.4061,0.4138,0.4248,0.4317,0.4403,0.4472,0.4634,0.4707,0.484,0.4878,0.4972,0.4903,0.4919,0.4913,0.461,0.4521,0.428,0.4273,0.4159,0.4092,0.4195,0.4183,0.4173,0.4166,0,0.3865,0.3895,0.4025,0.4146,0.4221,0.4295,0.4382,0.441,0.4511,0.4575,0.4638,0.4668,0.4659,0.4446,0.4389,0.4381,0.4303,0.4404,0.4349,0.377,0.3473,0.3365,0.4068,0.408,0.4088,0.4095,0.4099,0.4103,0.3942,0.4022,0.4134,0.4224,0.4296,0.4298,0.4272,0.4328,0.434,0.4319,0.4465,0.4319,0.4108,0.3914,0.3874,0.3493,0.3699,0.3359,0.3448,0.3391,0.3163,0.3595,0.3424,0.3428,0.3432,0.3436,0.3439,0,0.4038,0.4093,0.4201,0.4253,0.4258,0.4284,0.4281,0.4166,0.4071,0.4045,0.3998,0.3614,0.3318,0.3145,0.2751,0.2572,0.2519,0.2529,0.2374,0.2406,0.2945,0.2755,0.2193,0.2193,0.2194,0.2194,0.2194,0.2194,0.4094,0.4173,0.418,0.4162,0.4165,0.4013,0.3936,0.3776,0.3655,0.3296,0.2997,0.2914,0.2699,0.2364,0.2033,0.1979,0.1933,0.1705,0.1944,0.2367,0.2453,0.2536,0.2357,0.1721,0.1721,0.1187,0.1183,0.118]},{"header":{"parameterUnit":"m.s-1","parameterCategory":2,"la1":30.2991,"la2":30.254,"lo1":-89.0895,"lo2":-89.0444,"dy":0.0017,"dx":0.0017,"nx":28,"ny":28,"refTime":"2025-07-13T03:00:00:Z","depth":"0","parameterNumber":3,"parameterNumberName":"V-component_of_CURRENTS"},"data":[0,0,0,0,0,0,0,0,0,0,0,0,0,0,0,0,0,0,0,0,0,0,0,0,0,0,0,0,0,0,0,0,0,0,0,0,0,0,0,0,0,0,0,0,0,0,0,0,0,0,0,0,0,0,0,0,0,0,0.0151,0.015,0,0.0129,0.0128,0.0128,0.0096,0.0095,0.0094,0.0094,0.0138,0.014,0.0142,0,0,0,0,0,0,0,0,0,0,0,0,0,0.0172,0.0172,0.0151,0.015,0.015,0.0129,0.0128,0.0128,0.0096,0.0095,0.0094,0.0094,0.0138,0.014,0.0142,0,0,0,0,0,0,0,0,0,0,0,0,0,0.0159,0.0172,0.0151,0.0131,0.0129,0.0129,0.0128,0.0128,0.0096,0.0095,0.0094,0.0093,0.0137,0.014,0.0142,0.0178,0,0,0.0151,0.0152,0,0,0,0,0,0,0,0,0.016,0.0158,0.0134,0.0132,0.013,0.0113,0.0152,0.0148,0.0096,0.0109,0.0094,0.0093,0.0136,0.0139,0.0137,0.0181,0.0182,0.0151,0.0152,0.0154,0.0154,0,0,0,0,0,0,0,0.0161,0.0159,0.0143,0.0134,0.0131,0.0125,0.0122,0.0151,0.0131,0.0108,0.0105,0.0102,0.0135,0.0135,0.0138,0.0183,0.0151,0.0153,0.0155,0.0156,0.0282,0.0283,0,0,0,0,0,0,0.0162,0.016,0.0144,0.0142,0.0141,0.0125,0.0122,0.012,0.0129,0.0128,0.0103,0.01,0.0131,0.0135,0.014,0.0194,0.0154,0.0156,0.0158,0.028,0.0282,0.0284,0,0,0,0,0,0,0.0163,0.0161,0.0144,0.015,0.0147,0.0126,0.0124,0.012,0.0119,0.0124,0.0124,0.0105,0.013,0.0136,0.0162,0.0195,0.0157,0.016,0.0278,0.0281,0.0283,0.0297,0,0,0,0,0,0,0.0164,0.0162,0.0165,0.015,0.0147,0.0149,0.0125,0.012,0.0118,0.0114,0.0126,0.0129,0.013,0.0158,0.0164,0.0198,0.0162,0.0276,0.0279,0.0282,0.0294,0.0299,0.0304,0,0,0,0,0,0.0164,0.0173,0.0165,0.0163,0.015,0.0149,0.0148,0.013,0.0119,0.0124,0.0126,0.0129,0.0184,0.0161,0.0168,0.0204,0.0274,0.0278,0.0282,0.0292,0.0298,0.0304,0,0,0,0,0,0,0.0181,0.017,0.0161,0.0164,0.0159,0.0143,0.0147,0.0136,0.0142,0.014,0.0142,0.0145,0.0179,0.0196,0.017,0.0253,0.0234,0.024,0.0239,0.0246,0.0251,0.0323,0.0164,0,0,0,0,0,0.0187,0.0192,0.0178,0.0182,0.0181,0.0166,0.0165,0.0154,0.0153,0.0153,0.0158,0.0178,0.0204,0.0225,0.0243,0.0291,0.0333,0.0324,0.0329,0.0333,0.0399,0.0514,0.0536,0.0297,0.0297,0.0297,0,0,0.0192,0.0189,0.0189,0.0186,0.018,0.0183,0.0163,0.0164,0.0176,0.0162,0.0183,0.0189,0.0218,0.0258,0.0278,0.0276,0.0401,0.0338,0.0341,0.0407,0.052,0.0544,0.0565,0.0299,0.0299,0.0298,0,0,0.0202,0.0205,0.0208,0.0207,0.0201,0.02,0.0203,0.0193,0.0201,0.0216,0.0215,0.026,0.0272,0.0324,0.0346,0.0405,0.0414,0.0389,0.0486,0.0594,0.0616,0.0636,0.062,0.0639,0.0403,0.0403,0.0403,0,0.0207,0.0211,0.0209,0.021,0.0221,0.021,0.0223,0.023,0.023,0.0278,0.0225,0.0329,0.0322,0.0444,0.0442,0.0423,0.0441,0.0449,0.0603,0.0624,0.0645,0.0625,0.0646,0.0404,0.0404,0.0404,0.0404,0,0.0216,0.0219,0.0224,0.0227,0.0243,0.0253,0.0265,0.0295,0.0298,0.0323,0.0424,0.0433,0.0518,0.0502,0.0477,0.063,0.0573,0.0581,0.0587,0.067,0.0641,0.0663,0.0406,0.0406,0.0405,0.0405,0,0,0.0229,0.0229,0.0231,0.0256,0.0259,0.0288,0.0327,0.0398,0.0484,0.0487,0.0621,0.0642,0.068,0.0715,0.0713,0.0797,0.0879,0.0746,0.0751,0.073,0.1034,0.0925,0.0936,0.0911,0.0917,0.0922,0.0919,0,0.0238,0.0254,0.0257,0.0302,0.0322,0.0354,0.0416,0.0487,0.0542,0.0665,0.0735,0.0834,0.0751,0.0805,0.0879,0.0902,0.0953,0.0874,0.0964,0.0965,0.0861,0.0968,0.0932,0.0926,0.094,0.0944,0.0946,0,0.0245,0.0267,0.0297,0.0385,0.0405,0.044,0.0598,0.0651,0.081,0.0864,0.0992,0.1036,0.1164,0.1082,0.1191,0.1139,0.11,0.1096,0.1096,0.1035,0.0903,0.0869,0.0964,0.0904,0.0979,0.0977,0.0974,0,0.0276,0.0311,0.0351,0.0366,0.0447,0.0514,0.0583,0.0725,0.0837,0.1017,0.1127,0.126,0.135,0.1379,0.1313,0.1274,0.141,0.1355,0.1217,0.1202,0.122,0.1198,0.1292,0.1464,0.1464,0.1464,0.1464,0,0.0293,0.0335,0.0375,0.0401,0.0533,0.0569,0.0746,0.0834,0.1012,0.119,0.1247,0.141,0.1441,0.1497,0.1413,0.137,0.1483,0.1281,0.1245,0.1205,0.1184,0.1171,0.113,0.1464,0.1464,0.1464,0.1464,0,0.0325,0.0321,0.0401,0.0495,0.054,0.0646,0.0834,0.0982,0.1103,0.1343,0.1412,0.1561,0.1619,0.1581,0.1616,0.1494,0.1415,0.1404,0.1282,0.1235,0.1036,0.0996,0.1077,0.1072,0.128,0.1278,0.1276,0,0.0341,0.037,0.0483,0.0565,0.0613,0.0764,0.0894,0.1027,0.118,0.1437,0.1571,0.1689,0.1794,0.1748,0.1582,0.1433,0.1373,0.1265,0.1217,0.1072,0.1003,0.0971,0.096,0.1189,0.1187,0.1185,0.1184,0,0.0416,0.0447,0.053,0.0677,0.0805,0.0957,0.1129,0.1247,0.143,0.1612,0.183,0.1928,0.1877,0.1747,0.1505,0.1388,0.1221,0.1219,0.1178,0.1057,0.0936,0.0894,0.1041,0.1168,0.117,0.1171,0.1172,0.1172,0.0507,0.0581,0.0681,0.083,0.097,0.1123,0.1245,0.1426,0.1637,0.1897,0.198,0.2124,0.1892,0.1582,0.1413,0.1061,0.1108,0.0957,0.0941,0.0937,0.0909,0.0951,0.0973,0.0974,0.0974,0.0974,0.0975,0,0.0618,0.0693,0.0837,0.0993,0.114,0.1186,0.1397,0.1514,0.1729,0.1975,0.2152,0.2074,0.1805,0.1499,0.1019,0.0827,0.0794,0.074,0.074,0.0762,0.0904,0.0876,0.075,0.075,0.075,0.075,0.075,0.0751,0.0692,0.0821,0.0872,0.1097,0.1205,0.136,0.1456,0.1634,0.1807,0.202,0.2091,0.2149,0.1878,0.1155,0.0733,0.0658,0.0612,0.0536,0.0554,0.0666,0.0687,0.0707,0.0675,0.0509,0.0509,0.0435,0.0434,0.0433]}],[{"header":{"parameterUnit":"m.s-1","parameterCategory":2,"la1":30.2991,"la2":30.254,"lo1":-89.0895,"lo2":-89.0444,"dy":0.0017,"dx":0.0017,"nx":28,"ny":28,"refTime":"2025-07-13T03:00:00:Z","depth":"2","parameterNumber":2,"parameterNumberName":"U-component_of_CURRENTS"},"data":[0,0,0,0,0,0,0,0,0,0,0,0,0,0,0,0,0,0,0,0,0,0,0,0,0,0,0,0,0,0,0,0,0,0,0,0,0,0,0,0,0,0,0,0,0,0,0,0,0,0,0,0,0,0,0,0,0,0,0.2237,0.2237,0,0.2256,0.2256,0.2256,0.2266,0.2266,0.2266,0.2266,0.2311,0.2313,0.2314,0,0,0,0,0,0,0,0,0,0,0,0,0,0.226,0.2259,0.2237,0.2237,0.2237,0.2256,0.2256,0.2256,0.2266,0.2266,0.2266,0.2266,0.2311,0.2313,0.2314,0,0,0,0,0,0,0,0,0,0,0,0,0,0.2261,0.2258,0.2237,0.2244,0.2245,0.2256,0.2256,0.2256,0.2266,0.2266,0.2266,0.2266,0.2311,0.2312,0.2314,0.2325,0,0,0.232,0.232,0,0,0,0,0,0,0,0,0.2261,0.226,0.2243,0.2244,0.2245,0.2259,0.2281,0.2281,0.2266,0.2258,0.2266,0.2266,0.2296,0.2299,0.2302,0.2327,0.2329,0.232,0.2321,0.2322,0.2322,0,0,0,0,0,0,0,0.2261,0.226,0.2244,0.2243,0.2244,0.2264,0.2264,0.2281,0.2278,0.2259,0.226,0.2262,0.2297,0.2301,0.2304,0.233,0.232,0.2321,0.2322,0.2323,0.2442,0.2444,0,0,0,0,0,0,0.2255,0.2259,0.2244,0.2245,0.2253,0.2264,0.2263,0.2254,0.2277,0.228,0.2262,0.2262,0.2298,0.2302,0.2305,0.2461,0.2322,0.2323,0.2324,0.244,0.2443,0.2445,0,0,0,0,0,0,0.2256,0.2253,0.2243,0.2253,0.2253,0.2263,0.2253,0.2255,0.2273,0.2279,0.2282,0.228,0.2298,0.2303,0.2346,0.2457,0.2324,0.2326,0.2438,0.2441,0.2444,0.2682,0,0,0,0,0,0,0.2256,0.2253,0.2258,0.2253,0.2253,0.2274,0.2253,0.2255,0.2273,0.2275,0.2295,0.2299,0.2298,0.2343,0.2347,0.2457,0.2327,0.2435,0.2439,0.2443,0.2671,0.2693,0.2711,0,0,0,0,0,0.2257,0.2266,0.2257,0.2257,0.2254,0.2275,0.2278,0.2285,0.2275,0.2298,0.231,0.2299,0.2371,0.2346,0.2351,0.2464,0.2433,0.2438,0.2443,0.2663,0.2689,0.2711,0,0,0,0,0,0,0.2278,0.2267,0.2258,0.2263,0.2277,0.2277,0.2297,0.2295,0.2321,0.2332,0.2322,0.2327,0.244,0.238,0.2352,0.25,0.2402,0.2408,0.2568,0.2592,0.2611,0.2628,0.2329,0,0,0,0,0,0.2282,0.229,0.2283,0.2293,0.2297,0.2297,0.2309,0.2322,0.2336,0.2347,0.2358,0.2378,0.2458,0.2462,0.2515,0.2558,0.2574,0.2628,0.2648,0.2666,0.2677,0.2856,0.2896,0.246,0.246,0.246,0,0,0.2294,0.229,0.2294,0.2299,0.2305,0.2346,0.2306,0.2342,0.2393,0.235,0.242,0.2475,0.2494,0.2598,0.2634,0.2555,0.2784,0.2672,0.2688,0.2689,0.2865,0.2909,0.2947,0.2464,0.2463,0.2462,0,0,0.2352,0.2315,0.236,0.237,0.2396,0.2395,0.2409,0.2426,0.2449,0.2521,0.2545,0.264,0.2684,0.2749,0.2784,0.2918,0.2924,0.2931,0.3013,0.3189,0.3228,0.3263,0.3298,0.3334,0.2896,0.2897,0.2897,0,0.2381,0.2396,0.2379,0.243,0.2434,0.2422,0.2471,0.2507,0.2545,0.2579,0.2571,0.2745,0.2774,0.2931,0.2998,0.2979,0.3028,0.2938,0.3225,0.326,0.3292,0.3319,0.3357,0.2909,0.2907,0.2906,0.2905,0,0.2449,0.2483,0.2503,0.255,0.2575,0.2597,0.2633,0.2675,0.2697,0.2742,0.2904,0.2967,0.3053,0.3109,0.3107,0.3341,0.3286,0.3281,0.3185,0.3352,0.3366,0.3401,0.2926,0.2922,0.2918,0.2915,0,0,0.2462,0.2535,0.2545,0.2579,0.2616,0.2642,0.2733,0.2798,0.2863,0.2962,0.3072,0.3256,0.3289,0.3327,0.3359,0.35,0.3775,0.3488,0.3492,0.3555,0.4096,0.3682,0.3678,0.386,0.3868,0.3874,0.4002,0,0.2513,0.2603,0.2629,0.272,0.2753,0.2768,0.2846,0.2929,0.299,0.3099,0.3223,0.3365,0.3369,0.3447,0.3606,0.3762,0.3884,0.3734,0.3893,0.3894,0.3539,0.3712,0.3436,0.3496,0.4036,0.4041,0.4045,0,0.2578,0.2606,0.2696,0.2777,0.2791,0.2862,0.2937,0.3014,0.3169,0.3231,0.3387,0.3475,0.3703,0.3688,0.4021,0.3938,0.4037,0.413,0.4138,0.3693,0.3547,0.3421,0.3538,0.4102,0.4098,0.4094,0.409,0,0.2568,0.2668,0.272,0.2737,0.283,0.2889,0.2941,0.3069,0.3142,0.3333,0.3429,0.3662,0.3806,0.4027,0.4136,0.4157,0.4447,0.4486,0.4185,0.4152,0.3906,0.3834,0.4739,0.4738,0.4738,0.4738,0.4738,0,0.2582,0.2636,0.2727,0.2743,0.2822,0.2901,0.3012,0.309,0.3243,0.336,0.3508,0.3632,0.393,0.4074,0.4198,0.4222,0.4486,0.4224,0.4191,0.396,0.3895,0.4405,0.4365,0.4742,0.4741,0.4741,0.474,0,0.2588,0.2639,0.2711,0.2794,0.2836,0.2898,0.3037,0.3124,0.3257,0.3422,0.3502,0.3706,0.3873,0.4005,0.4307,0.4239,0.4335,0.4259,0.3858,0.3772,0.3924,0.3895,0.4045,0.4032,0.4022,0.4013,0.4005,0,0.2605,0.2643,0.2735,0.2784,0.2831,0.293,0.3012,0.3134,0.3215,0.3435,0.3513,0.3693,0.3735,0.3857,0.3828,0.3851,0.4062,0.3539,0.3522,0.3917,0.3873,0.386,0.3845,0.3313,0.33,0.329,0.3281,0,0.2605,0.2649,0.2672,0.2806,0.2896,0.2948,0.3059,0.3104,0.3255,0.3349,0.3435,0.3477,0.3508,0.3345,0.3243,0.3249,0.3507,0.3313,0.3971,0.3437,0.3212,0.317,0.3185,0.3189,0.3198,0.3205,0.321,0.3214,0.2605,0.2634,0.2724,0.2803,0.2915,0.2956,0.2946,0.3004,0.3055,0.3068,0.3207,0.3106,0.3085,0.2767,0.2659,0.2581,0.2871,0.2806,0.285,0.2902,0.27,0.2459,0.2254,0.2257,0.2261,0.2263,0.2266,0,0.2593,0.2651,0.2737,0.2817,0.2878,0.2957,0.2976,0.2879,0.2812,0.2788,0.2732,0.2409,0.2225,0.2238,0.1968,0.188,0.201,0.1815,0.203,0.2117,0.2197,0.1972,0.1328,0.1325,0.1322,0.132,0,0,0.2614,0.2639,0.2645,0.2723,0.2811,0.2798,0.2748,0.2555,0.2455,0.2203,0.2055,0.2096,0.215,0.1721,0.1629,0.1448,0.1796,0.1381,0.2135,0.2479,0.2556,0.2755,0.2498,0,0,0,0,0]},{"header":{"parameterUnit":"m.s-1","parameterCategory":2,"la1":30.2991,"la2":30.254,"lo1":-89.0895,"lo2":-89.0444,"dy":0.0017,"dx":0.0017,"nx":28,"ny":28,"refTime":"2025-07-13T03:00:00:Z","depth":"2","parameterNumber":3,"parameterNumberName":"V-component_of_CURRENTS"},"data":[0,0,0,0,0,0,0,0,0,0,0,0,0,0,0,0,0,0,0,0,0,0,0,0,0,0,0,0,0,0,0,0,0,0,0,0,0,0,0,0,0,0,0,0,0,0,0,0,0,0,0,0,0,0,0,0,0,0,0.0003,0.0002,0,-0.0017,-0.0017,-0.0017,-0.0033,-0.0033,-0.0033,-0.0034,-0.0025,-0.0024,-0.0024,0,0,0,0,0,0,0,0,0,0,0,0,0,0.0024,0.0024,0.0003,0.0002,0.0002,-0.0016,-0.0017,-0.0017,-0.0033,-0.0033,-0.0033,-0.0034,-0.0025,-0.0024,-0.0024,0,0,0,0,0,0,0,0,0,0,0,0,0,0.0012,0.0024,0.0003,-0.0009,-0.001,-0.0016,-0.0017,-0.0017,-0.0033,-0.0033,-0.0034,-0.0034,-0.0025,-0.0024,-0.0024,-0.0012,0,0,-0.0021,-0.0021,0,0,0,0,0,0,0,0,0.0012,0.0011,-0.0007,-0.0008,-0.001,-0.0023,-0.0006,-0.0014,-0.0033,-0.0023,-0.0034,-0.0034,-0.0022,-0.0022,-0.0023,-0.0011,-0.0011,-0.0021,-0.0021,-0.0021,-0.002,0,0,0,0,0,0,0,0.0013,0.0012,-0.0004,-0.0007,-0.0009,-0.0014,-0.0016,-0.0008,-0.0019,-0.0024,-0.0026,-0.0029,-0.0022,-0.0024,-0.0023,-0.0011,-0.0021,-0.0021,-0.002,-0.002,0.0017,0.0018,0,0,0,0,0,0,0.0014,0.0012,-0.0004,-0.0005,-0.0,-0.0014,-0.0016,-0.0018,-0.002,-0.0021,-0.0029,-0.003,-0.0025,-0.0024,-0.0023,-0.0057,-0.0021,-0.002,-0.002,0.0017,0.0017,0.0018,0,0,0,0,0,0,0.0015,0.0013,-0.0003,0.0003,0.0,-0.0014,-0.0016,-0.0018,-0.0019,-0.0024,-0.0024,-0.0027,-0.0025,-0.0024,-0.0033,-0.0055,-0.002,-0.0019,0.0016,0.0017,0.0018,-0.0093,0,0,0,0,0,0,0.0016,0.0013,0.0015,0.0003,-0.0,-0.0007,-0.0016,-0.0018,-0.0021,-0.0023,-0.0023,-0.0022,-0.0026,-0.0035,-0.0033,-0.0053,-0.0018,0.0015,0.0016,0.0017,-0.009,-0.0096,-0.0101,0,0,0,0,0,0.0016,0.0018,0.0015,0.0013,0.0001,-0.0007,-0.0009,-0.0019,-0.0021,-0.0021,-0.0034,-0.0022,-0.0025,-0.0035,-0.0032,-0.0053,0.0015,0.0016,0.0017,-0.0088,-0.0095,-0.0101,0,0,0,0,0,0,0.0024,0.0017,0.0012,0.0011,0.0002,-0.001,-0.0011,-0.0016,-0.0025,-0.0026,-0.003,-0.0031,-0.0041,-0.0019,-0.0029,-0.003,0.0004,0.0005,-0.0077,-0.0083,-0.0089,-0.0034,-0.0018,0,0,0,0,0,0.0028,0.003,0.0018,0.0017,0.0014,0.0004,0.0,-0.0007,-0.0018,-0.0021,-0.0029,-0.0026,-0.0031,-0.0037,-0.0028,-0.0039,0.0038,-0.0039,-0.0045,-0.005,0.0001,0.0131,0.0142,0.0022,0.0022,0.0022,0,0,0.0028,0.0026,0.0025,0.0019,0.0012,-0.0005,0.0001,-0.0004,-0.0022,-0.0018,-0.0042,-0.0043,-0.0034,-0.0054,-0.0055,-0.0045,0.0004,-0.0049,-0.0055,0.0002,0.0134,0.0146,0.0156,0.0023,0.0023,0.0023,0,0,0.0024,0.003,0.0025,0.0014,0.0005,-0.0,-0.0001,-0.0015,-0.0022,-0.0054,-0.0049,-0.005,-0.0078,-0.0066,-0.0067,-0.0082,-0.0023,-0.0091,-0.0091,0.0031,0.0043,0.0054,0.0072,0.0087,-0.0103,-0.0103,-0.0104,0,0.0024,0.0018,0.0022,0.0005,0.0002,-0.0001,-0.0011,-0.0028,-0.0047,-0.0037,-0.0072,-0.006,-0.0075,-0.0058,-0.0089,-0.0095,-0.004,-0.0087,0.0024,0.0038,0.0052,0.0069,0.0087,-0.0109,-0.0108,-0.0108,-0.0107,0,0.0011,-0.0002,-0.0005,-0.0025,-0.0027,-0.0033,-0.0051,-0.0049,-0.0067,-0.0081,-0.0069,-0.0085,-0.006,-0.0092,-0.0118,-0.0037,-0.0041,0.0002,0.0035,0.0057,0.0072,0.0092,-0.0116,-0.0114,-0.0113,-0.0111,0,0,0.0027,-0.0005,-0.0009,-0.001,-0.0036,-0.0027,-0.0049,-0.0042,-0.001,-0.0066,-0.002,-0.008,-0.0058,-0.0049,-0.0058,0.0014,0.0079,0.0033,0.0041,0.004,0.0288,0.0182,0.0193,0.0147,0.0152,0.0156,0.0224,0,0.0018,-0.0007,-0.0018,-0.003,-0.0038,-0.0033,-0.0031,-0.0027,-0.0027,0.0012,-0.0001,0.0026,-0.0053,-0.0029,0.002,0.0123,0.0145,0.0054,0.0282,0.0288,0.0185,0.022,0.0216,0.0272,0.0244,0.0248,0.025,0,0.0005,0.0001,-0.002,0.0005,0.0011,0.0001,0.0068,0.0068,0.0104,0.0111,0.0127,0.0137,0.0198,0.0147,0.0293,0.0243,0.0249,0.0292,0.0298,0.0278,0.0225,0.027,0.031,0.0285,0.0282,0.0279,0.0277,0,0.0025,0.0009,0.0007,-0.0002,0.001,0.003,0.0054,0.0093,0.0155,0.0193,0.0267,0.0302,0.0394,0.0433,0.0447,0.0406,0.0622,0.0586,0.047,0.0458,0.0547,0.0535,0.0683,0.0683,0.0683,0.0682,0.0682,0,0.0018,0.002,0.0016,0.0008,0.0073,0.0061,0.0155,0.0176,0.0264,0.039,0.0333,0.0479,0.0495,0.0585,0.0537,0.0569,0.0689,0.0498,0.0503,0.0491,0.0475,0.0587,0.0575,0.0685,0.0684,0.0684,0.0683,0,0.0021,-0.0001,0.0021,0.0048,0.0068,0.0115,0.0229,0.0334,0.0372,0.0552,0.0581,0.0687,0.0799,0.0743,0.085,0.0726,0.0736,0.0689,0.0602,0.0594,0.0446,0.0428,0.0593,0.059,0.0588,0.0587,0.0585,0,0.0014,0.001,0.0066,0.0133,0.0143,0.0221,0.0323,0.0373,0.0504,0.0711,0.084,0.0955,0.1056,0.1073,0.0912,0.0771,0.0751,0.0628,0.054,0.0466,0.0455,0.0439,0.0424,0.0577,0.0575,0.0574,0.0573,0,0.003,0.0047,0.0097,0.0231,0.0327,0.0457,0.0587,0.07,0.0827,0.0991,0.1243,0.1324,0.127,0.1159,0.0882,0.0778,0.0641,0.0593,0.067,0.0567,0.045,0.0437,0.0424,0.0563,0.0564,0.0565,0.0566,0.0566,0.0086,0.014,0.023,0.0389,0.051,0.0699,0.0811,0.1003,0.1221,0.1438,0.1503,0.1572,0.1372,0.1017,0.082,0.0564,0.0582,0.0468,0.0475,0.0482,0.0435,0.0319,0.0393,0.0393,0.0393,0.0394,0.0394,0,0.0186,0.026,0.0406,0.0581,0.0756,0.0785,0.1018,0.1151,0.1428,0.1567,0.1708,0.148,0.1296,0.1037,0.0643,0.0411,0.0416,0.0338,0.04,0.0411,0.0421,0.0373,0.0314,0.0313,0.0313,0.0312,0,0,0.0246,0.0405,0.0502,0.0793,0.0904,0.109,0.1215,0.142,0.1533,0.1679,0.1661,0.1617,0.1315,0.1008,0.0732,0.0518,0.051,0.047,0.0556,0.0674,0.0686,0.0516,0.0456,0,0,0,0,0]}],[{"header":{"parameterUnit":"m.s-1","parameterCategory":2,"la1":30.2991,"la2":30.254,"lo1":-89.0895,"lo2":-89.0444,"dy":0.0017,"dx":0.0017,"nx":28,"ny":28,"refTime":"2025-07-13T03:00:00:Z","depth":"4","parameterNumber":2,"parameterNumberName":"U-component_of_CURRENTS"},"data":[0,0,0,0,0,0,0,0,0,0,0,0,0,0,0,0,0,0,0,0,0,0,0,0,0,0,0,0,0,0,0,0,0,0,0,0,0,0,0,0,0,0,0,0,0,0,0,0,0,0,0,0,0,0,0,0,0,0,0.1115,0.1115,0,0.1111,0.1111,0.1111,0.1108,0.1108,0.1108,0.1108,0.1098,0.1098,0.1098,0,0,0,0,0,0,0,0,0,0,0,0,0,0.1112,0.1112,0.1115,0.1115,0.1115,0.1111,0.1111,0.1111,0.1108,0.1108,0.1108,0.1108,0.1098,0.1098,0.1098,0,0,0,0,0,0,0,0,0,0,0,0,0,0.1111,0.1112,0.1115,0.1113,0.1113,0.1111,0.1111,0.1111,0.1108,0.1108,0.1108,0.1108,0.1099,0.1098,0.1098,0.1095,0,0,0.1097,0.1096,0,0,0,0,0,0,0,0,0.1111,0.1111,0.1113,0.1113,0.1113,0.111,0.1107,0.1105,0.1108,0.1109,0.1108,0.1108,0.1102,0.1102,0.11,0.1094,0.1094,0.1097,0.1096,0.1096,0.1096,0,0,0,0,0,0,0,0.1111,0.1111,0.1113,0.1113,0.1113,0.111,0.111,0.1106,0.1105,0.1109,0.1109,0.1109,0.1102,0.11,0.11,0.1094,0.1097,0.1096,0.1096,0.1096,0.1146,0.1148,0,0,0,0,0,0,0.1113,0.1111,0.1113,0.1113,0.1113,0.111,0.111,0.1111,0.1105,0.1105,0.1109,0.1109,0.1101,0.11,0.1099,0.1111,0.1096,0.1096,0.1095,0.1145,0.1147,0.1148,0,0,0,0,0,0,0.1113,0.1113,0.1113,0.1112,0.1112,0.1111,0.1111,0.1111,0.1137,0.1106,0.1105,0.114,0.1101,0.11,0.111,0.111,0.1096,0.1095,0.1143,0.1145,0.1147,0.1123,0,0,0,0,0,0,0.1113,0.1113,0.1128,0.1112,0.1112,0.1102,0.1111,0.1111,0.1136,0.1136,0.1131,0.1128,0.1101,0.1111,0.111,0.1109,0.1095,0.1141,0.1144,0.1147,0.1122,0.1125,0.1127,0,0,0,0,0,0.1113,0.1117,0.1129,0.113,0.1128,0.1102,0.1101,0.11,0.1138,0.113,0.1145,0.113,0.113,0.1112,0.111,0.1109,0.1139,0.1143,0.1146,0.1121,0.1124,0.1127,0,0,0,0,0,0,0.112,0.1117,0.113,0.1134,0.112,0.1101,0.1101,0.1124,0.1133,0.1141,0.1141,0.1138,0.1137,0.1147,0.1128,0.114,0.1136,0.114,0.1118,0.1121,0.1123,0.1138,0.1094,0,0,0,0,0,0.1132,0.1138,0.1126,0.1131,0.1124,0.1129,0.1131,0.1126,0.1127,0.1134,0.1141,0.1153,0.1148,0.1156,0.114,0.1156,0.1178,0.1163,0.1165,0.1166,0.1183,0.1273,0.1285,0.116,0.116,0.116,0,0,0.1139,0.1138,0.1144,0.1134,0.1127,0.1079,0.1129,0.1118,0.1099,0.113,0.1128,0.1149,0.1152,0.1145,0.1151,0.1158,0.1196,0.1171,0.1171,0.1188,0.1278,0.129,0.1301,0.1162,0.1162,0.1162,0,0,0.1103,0.1149,0.1115,0.1089,0.107,0.1073,0.108,0.1076,0.1099,0.1101,0.1119,0.1167,0.1155,0.1169,0.1172,0.1197,0.1194,0.1191,0.1223,0.1309,0.132,0.133,0.1292,0.13,0.1207,0.1207,0.1207,0,0.1112,0.1063,0.1101,0.1031,0.1015,0.1069,0.101,0.1027,0.1036,0.1097,0.1091,0.1176,0.1166,0.1211,0.12,0.1199,0.1213,0.1199,0.1311,0.1322,0.1333,0.1293,0.1301,0.1206,0.1206,0.1206,0.1206,0,0.101,0.0974,0.0949,0.0891,0.0885,0.0848,0.0865,0.092,0.0987,0.1026,0.1117,0.1138,0.1229,0.1207,0.1194,0.1276,0.1242,0.1287,0.1297,0.1344,0.1297,0.1306,0.1205,0.1205,0.1206,0.1206,0,0,0.1017,0.0904,0.0895,0.0847,0.0813,0.08,0.0823,0.0885,0.0985,0.1015,0.1145,0.1139,0.1253,0.1269,0.1298,0.1343,0.138,0.1344,0.1349,0.1291,0.1487,0.1411,0.1413,0.1456,0.1459,0.1462,0.1393,0,0.0927,0.0774,0.0765,0.0666,0.0592,0.0679,0.0725,0.0805,0.0921,0.1067,0.1167,0.1252,0.1247,0.1315,0.1378,0.1397,0.1417,0.1389,0.1466,0.1465,0.1384,0.1428,0.1473,0.1399,0.1401,0.1403,0.1404,0,0.0804,0.0733,0.0598,0.0587,0.0584,0.0581,0.0753,0.079,0.1013,0.1127,0.1291,0.137,0.1464,0.1458,0.1537,0.1525,0.1511,0.1493,0.1493,0.1451,0.1412,0.1368,0.1421,0.1419,0.1418,0.1417,0.1416,0,0.0731,0.0625,0.0536,0.05,0.0499,0.0567,0.0645,0.084,0.0966,0.1184,0.1317,0.146,0.1573,0.1596,0.1611,0.1577,0.1677,0.164,0.1534,0.1523,0.1617,0.1609,0.1692,0.1692,0.1692,0.1692,0.1693,0,0.0597,0.0534,0.052,0.0447,0.0516,0.0534,0.0692,0.0831,0.1067,0.1223,0.1365,0.1496,0.1626,0.171,0.1661,0.1648,0.1743,0.1539,0.1534,0.1594,0.1585,0.1617,0.1609,0.169,0.169,0.1691,0.1691,0,0.0495,0.0438,0.0362,0.0393,0.0446,0.0507,0.0725,0.0852,0.1064,0.128,0.1342,0.1574,0.1646,0.1727,0.1773,0.1723,0.1683,0.165,0.1661,0.1657,0.1418,0.141,0.1462,0.146,0.1458,0.1456,0.1455,0,0.0401,0.0334,0.0354,0.0369,0.0395,0.0517,0.0634,0.0858,0.0981,0.1284,0.1362,0.1542,0.1659,0.1681,0.1734,0.167,0.1651,0.1597,0.1526,0.1422,0.1411,0.1406,0.1401,0.1451,0.1451,0.145,0.145,0,0.0299,0.0327,0.0326,0.0335,0.0413,0.0499,0.0658,0.0767,0.1012,0.1203,0.1382,0.1458,0.1579,0.1617,0.1654,0.1581,0.1614,0.1573,0.1574,0.1506,0.1409,0.1399,0.1397,0.1442,0.1443,0.1444,0.1444,0,0.0297,0.0331,0.0329,0.0368,0.0417,0.0455,0.0552,0.0705,0.0875,0.1205,0.1239,0.1417,0.1584,0.1567,0.1556,0.155,0.1463,0.1369,0.1378,0.1387,0.14,0.1268,0.1265,0,0,0,0,0,0.0283,0.0335,0.0355,0.036,0.0375,0.0402,0.0557,0.0653,0.0892,0.0998,0.1145,0.1234,0.1318,0.1377,0.134,0.1422,0.1417,0.1362,0.13,0.1402,0.141,0.1436,0,0,0,0,0,0,0.027,0.0318,0.0364,0.0338,0.0322,0.0348,0.0436,0.058,0.0655,0.0898,0.0951,0.1122,0.1202,0.1336,0.1309,0.1321,0.1244,0.1462,0.1458,0.1397,0.1405,0.1411,0.1441,0,0,0,0,0]},{"header":{"parameterUnit":"m.s-1","parameterCategory":2,"la1":30.2991,"la2":30.254,"lo1":-89.0895,"lo2":-89.0444,"dy":0.0017,"dx":0.0017,"nx":28,"ny":28,"refTime":"2025-07-13T03:00:00:Z","depth":"4","parameterNumber":3,"parameterNumberName":"V-component_of_CURRENTS"},"data":[0,0,0,0,0,0,0,0,0,0,0,0,0,0,0,0,0,0,0,0,0,0,0,0,0,0,0,0,0,0,0,0,0,0,0,0,0,0,0,0,0,0,0,0,0,0,0,0,0,0,0,0,0,0,0,0,0,0,0.0036,0.0035,0,0.0033,0.0033,0.0034,0.0038,0.0038,0.0038,0.0038,0.0019,0.0018,0.0018,0,0,0,0,0,0,0,0,0,0,0,0,0,0.0044,0.0044,0.0036,0.0035,0.0035,0.0033,0.0033,0.0034,0.0038,0.0038,0.0038,0.0038,0.0019,0.0018,0.0018,0,0,0,0,0,0,0,0,0,0,0,0,0,0.0043,0.0044,0.0036,0.0036,0.0036,0.0033,0.0033,0.0034,0.0038,0.0038,0.0038,0.0038,0.0019,0.0018,0.0017,0.0012,0,0,0.0015,0.0015,0,0,0,0,0,0,0,0,0.0043,0.0042,0.0036,0.0036,0.0036,0.0035,0.0029,0.0025,0.0038,0.0039,0.0038,0.0038,0.0021,0.002,0.0022,0.0011,0.001,0.0015,0.0014,0.0014,0.0014,0,0,0,0,0,0,0,0.0043,0.0043,0.0036,0.0036,0.0036,0.0037,0.0037,0.0029,0.0031,0.0039,0.0039,0.0036,0.0021,0.0023,0.0022,0.001,0.0015,0.0014,0.0014,0.0013,-0.0004,-0.0004,0,0,0,0,0,0,0.004,0.0043,0.0036,0.0036,0.0038,0.0036,0.0036,0.0036,0.0031,0.003,0.0036,0.0036,0.0024,0.0023,0.0021,0.0059,0.0014,0.0013,0.0013,-0.0004,-0.0004,-0.0004,0,0,0,0,0,0,0.004,0.004,0.0036,0.0038,0.0037,0.0036,0.0036,0.0036,0.0039,0.0029,0.0028,0.0039,0.0024,0.0022,0.001,0.0056,0.0013,0.0012,-0.0004,-0.0004,-0.0004,0.0106,0,0,0,0,0,0,0.0041,0.004,0.004,0.0038,0.0037,0.0052,0.0036,0.0036,0.0037,0.0037,0.0031,0.0029,0.0024,0.0012,0.001,0.0054,0.0012,-0.0004,-0.0004,-0.0004,0.0102,0.0109,0.0116,0,0,0,0,0,0.0041,0.0044,0.004,0.0039,0.0037,0.0053,0.0054,0.0053,0.0037,0.0052,0.003,0.003,0.0011,0.0011,0.0008,0.0054,-0.0004,-0.0004,-0.0004,0.0099,0.0108,0.0116,0,0,0,0,0,0,0.0045,0.0044,0.004,0.0041,0.0053,0.0053,0.0059,0.0053,0.0048,0.0044,0.0025,0.0022,0.003,0.0011,0.0011,0.0043,0.0005,0.0004,0.0084,0.0092,0.0099,0.0107,0.0011,0,0,0,0,0,0.0045,0.0049,0.0052,0.0054,0.006,0.0057,0.006,0.0065,0.0058,0.0057,0.0049,0.0034,0.0028,0.0034,0.0022,0.0038,-0.0011,0.0063,0.007,0.0076,0.0077,0.0015,0.0017,-0.0004,-0.0004,-0.0004,0,0,0.0043,0.0045,0.0045,0.0056,0.006,0.0102,0.0061,0.0076,0.0117,0.0054,0.0092,0.0054,0.0031,0.0053,0.0057,0.0047,0.0059,0.0076,0.0082,0.0079,0.0015,0.0017,0.0019,-0.0004,-0.0004,-0.0004,0,0,0.0069,0.0049,0.0076,0.0099,0.0116,0.0122,0.0128,0.0136,0.0145,0.0165,0.0129,0.0104,0.0111,0.0102,0.0098,0.0126,0.0087,0.0132,0.0193,0.0134,0.0136,0.0136,0.0093,0.0089,0.0148,0.0149,0.0149,0,0.007,0.0112,0.0087,0.0138,0.0164,0.0138,0.0195,0.0208,0.0213,0.0204,0.0194,0.0153,0.0138,0.0146,0.0167,0.0148,0.0106,0.0174,0.0145,0.0145,0.0143,0.0099,0.0093,0.0154,0.0153,0.0153,0.0152,0,0.0135,0.0178,0.0197,0.0256,0.0276,0.0316,0.0334,0.0349,0.034,0.0326,0.0312,0.0272,0.0245,0.0245,0.0227,0.022,0.019,0.0154,0.0132,0.0153,0.0104,0.0096,0.0162,0.016,0.0158,0.0157,0,0,0.0123,0.0225,0.0236,0.0284,0.0345,0.0359,0.0428,0.0451,0.0461,0.0449,0.0443,0.0431,0.0367,0.0355,0.0317,0.0276,0.0247,0.0229,0.0223,0.0201,0.0125,0.016,0.0154,0.0206,0.0205,0.0204,0.0101,0,0.0191,0.0309,0.034,0.0443,0.0502,0.0511,0.0571,0.0579,0.0562,0.0546,0.048,0.0449,0.0426,0.0399,0.0365,0.0257,0.0227,0.0278,0.0094,0.0089,0.013,0.0147,0.02,0.0095,0.0093,0.0091,0.009,0,0.0261,0.0328,0.0455,0.0539,0.056,0.0624,0.0661,0.0704,0.0676,0.0655,0.0606,0.0524,0.047,0.0432,0.0301,0.0333,0.0251,0.0169,0.0163,0.0149,0.0109,0.0061,0.0075,0.0076,0.0077,0.0078,0.0079,0,0.0277,0.04,0.0498,0.0538,0.0636,0.0686,0.0725,0.0734,0.0762,0.0701,0.0679,0.0584,0.0543,0.0414,0.0284,0.0276,0.0122,0.0081,0.0038,0.0039,-0.0011,-0.0012,-0.0013,-0.0013,-0.0013,-0.0013,-0.0012,0,0.0348,0.0419,0.0519,0.058,0.0672,0.0715,0.0793,0.0809,0.0827,0.0826,0.0731,0.0692,0.0534,0.0425,0.029,0.016,0.0132,0.0052,0.0015,0.0039,0.0045,-0.0016,-0.0015,-0.0016,-0.0016,-0.0015,-0.0014,0,0.0371,0.0451,0.0547,0.0654,0.0704,0.0754,0.0876,0.0907,0.0919,0.0919,0.0895,0.0784,0.0631,0.0482,0.027,0.0193,0.0031,-0.0007,0.0053,0.002,-0.002,-0.0012,-0.0088,-0.0088,-0.0087,-0.0087,-0.0087,0,0.0406,0.0475,0.0589,0.0648,0.0716,0.0816,0.0898,0.0962,0.0978,0.0954,0.0927,0.0811,0.0712,0.0462,0.0294,0.0066,0.004,-0.0031,-0.0041,0.0001,-0.0028,-0.002,-0.0013,-0.0086,-0.0086,-0.0086,-0.0086,0,0.0449,0.0483,0.0543,0.067,0.0768,0.0873,0.0972,0.1,0.1031,0.1044,0.0951,0.0814,0.0668,0.0459,0.0324,0.0142,0.001,-0.0029,-0.0032,-0.0041,0.0002,-0.0025,-0.0018,-0.0085,-0.0085,-0.0085,-0.0085,0,0.0457,0.0482,0.056,0.0671,0.0792,0.0891,0.0948,0.0982,0.1027,0.0996,0.0956,0.0795,0.0718,0.0497,0.0335,0.0206,0.015,0.0092,0.0082,0.0078,0.0165,0.0247,0.021,0,0,0,0,0,0.0454,0.0488,0.0571,0.0673,0.0786,0.0874,0.0978,0.101,0.1037,0.0987,0.0989,0.0838,0.0625,0.0505,0.038,0.0316,0.0116,0.0162,0.0041,-0.0078,-0.0079,-0.0002,0,0,0,0,0,0,0.0451,0.0504,0.0547,0.0669,0.0748,0.0874,0.0953,0.0969,0.0935,0.0937,0.0818,0.0799,0.0579,0.0701,0.0373,0.0332,0.0235,0.0071,0.0068,-0.0077,-0.0079,-0.008,-0.0,0,0,0,0,0]}]]